Chicago DuPage, IL

1:56 AM CDT on October 23, 2017 (GMT -0500)
Du Page

Weather History for KDPA - November, 2013

Change the Weather History Date:

Thursday, November 21, 2013

  Actual Average Record
Temperature  
Mean Temperature 45 °F 38 °F  
Max Temperature 49 °F 46 °F 60 °F (2010)
Min Temperature 40 °F 29 °F 6 °F (2014)
Degree Days  
Heating Degree Days 20 27  
Month to date heating degree days 514 472  
Since 1 July heating degree days 1077 983  
Cooling Degree Days 0 0  
Month to date cooling degree days 0 0  
Year to date cooling degree days 745 814  
Moisture  
Dew Point 42 °F    
Average Humidity 88    
Maximum Humidity 96    
Minimum Humidity 77    
Precipitation  
Precipitation 0.02 in 0.08 in 0.51 in (2007)
Month to date precipitation 2.21 2.21  
Year to date precipitation 34.18 34.32  
Sea Level Pressure  
Sea Level Pressure 30.15 in    
Wind  
Wind Speed 4 mph (South)    
Max Wind Speed 10 mph    
Max Gust Speed 12 mph    
Visibility 7 miles    
Events Rain    
T = Trace of Precipitation, MM = Missing Value Source: NWS Daily Summary

Daily Weather History Graph

Daily Weather History Graph

Search for Another Location

Airport or City:

Trip Planner

Search our weather history database for the weather conditions in past years. The results will help you decide how hot, cold, wet, or windy it might be!

Date:

Astronomy

Nov. 21, 2013 Rise Set
Actual Time 6:50 AM CST 4:27 PM CST
Civil Twilight 6:19 AM CST 4:57 PM CST
Nautical Twilight 5:45 AM CST 5:31 PM CST
Astronomical Twilight 5:12 AM CST 6:05 PM CST
Moon 8:04 PM CST (11/21) 9:56 AM CST (11/21)
Length of Visible Light 10h 38m
Length of Day
9h 37m
Waning Gibbous, 85% of the Moon is Illuminated
Nov 21
Waning Gibbous
Nov 25
Last Quarter
Dec 2
New
Dec 9
First Quarter
Dec 17
Full

Hourly Weather History & Observations

Time (CST) Temp. Windchill Dew Point Humidity Pressure Visibility Wind Dir Wind Speed Gust Speed Precip Events Conditions
12:52 AM 39.9 °F 36.7 °F 37.0 °F 89% 30.14 in 7.0 mi SE 4.6 mph - N/A   Overcast
1:52 AM 39.9 °F - 37.9 °F 93% 30.14 in 7.0 mi Calm Calm - N/A   Overcast
2:52 AM 41.0 °F - 37.9 °F 89% 30.12 in 7.0 mi Calm Calm - N/A   Overcast
3:52 AM 41.0 °F 38.0 °F 37.9 °F 89% 30.12 in 8.0 mi SE 4.6 mph - N/A   Overcast
4:52 AM 41.0 °F 39.0 °F 37.9 °F 89% 30.12 in 8.0 mi South 3.5 mph - N/A   Overcast
5:52 AM 42.1 °F 39.2 °F 37.9 °F 85% 30.12 in 8.0 mi South 4.6 mph - N/A   Overcast
6:52 AM 42.1 °F 40.2 °F 39.0 °F 89% 30.14 in 9.0 mi South 3.5 mph - N/A   Overcast
7:52 AM 43.0 °F 41.3 °F 39.0 °F 86% 30.15 in 7.0 mi South 3.5 mph - N/A   Overcast
8:52 AM 45.0 °F 40.6 °F 41.0 °F 86% 30.16 in 8.0 mi South 8.1 mph - N/A   Overcast
9:52 AM 46.9 °F - 42.1 °F 83% 30.16 in 8.0 mi South 8.1 mph - N/A   Overcast
10:52 AM 48.9 °F - 42.1 °F 77% 30.16 in 10.0 mi SSW 5.8 mph - N/A   Overcast
11:52 AM 48.9 °F - 42.1 °F 77% 30.14 in 9.0 mi South 5.8 mph - N/A   Overcast
12:52 PM 48.9 °F - 42.1 °F 77% 30.16 in 9.0 mi SSW 5.8 mph - N/A   Overcast
1:52 PM 48.0 °F - 43.0 °F 83% 30.14 in 9.0 mi South 4.6 mph - N/A   Overcast
2:09 PM 48.2 °F - 42.8 °F 82% 30.13 in 9.0 mi South 4.6 mph - 0.00 in Rain Light Rain
2:40 PM 48.2 °F - 42.8 °F 82% 30.11 in 8.0 mi SSE 3.5 mph - 0.00 in   Overcast
2:52 PM 48.0 °F - 43.0 °F 83% 30.13 in 9.0 mi Calm Calm - 0.00 in   Overcast
3:52 PM 46.9 °F - 44.1 °F 90% 30.14 in 5.0 mi Calm Calm - 0.00 in Rain Light Rain
4:52 PM 46.0 °F - 44.1 °F 93% 30.16 in 6.0 mi Calm Calm - 0.01 in Rain Light Rain
5:21 PM 46.4 °F - 44.6 °F 93% 30.15 in 5.0 mi Calm Calm - 0.00 in   Overcast
5:48 PM 46.4 °F - 44.6 °F 93% 30.15 in 5.0 mi Calm Calm - 0.00 in Rain Light Rain
5:52 PM 46.0 °F - 45.0 °F 96% 30.17 in 5.0 mi Calm Calm - 0.00 in Rain Light Rain
6:52 PM 46.0 °F - 44.1 °F 93% 30.17 in 4.0 mi Calm Calm - 0.00 in   Overcast
7:33 PM 46.4 °F 45.2 °F 44.6 °F 93% 30.17 in 6.0 mi NNW 3.5 mph - N/A   Overcast
7:52 PM 46.0 °F 43.9 °F 43.0 °F 89% 30.19 in 6.0 mi NW 4.6 mph - N/A   Overcast
8:52 PM 45.0 °F 43.5 °F 43.0 °F 93% 30.20 in 6.0 mi North 3.5 mph - 0.01 in   Overcast
9:52 PM 44.1 °F 40.1 °F 41.0 °F 89% 30.19 in 6.0 mi North 6.9 mph - N/A   Overcast
10:52 PM 44.1 °F 40.8 °F 41.0 °F 89% 30.20 in 5.0 mi North 5.8 mph - N/A   Overcast
11:52 PM 43.0 °F 41.3 °F 39.9 °F 89% 30.20 in 5.0 mi North 3.5 mph - N/A   Overcast